Last updated on Dec. 11, 2020, 12:02 a.m. UTC
1 43596U 98067PH 20344.36554324 .08904132 12494-4 57179-3 0 9995 2 43596 51.6062 99.6513 0006261 312.7483 99.6145 16.40921535132742
Satellite is not in orbit.